Home   Weather   Westerland   Past weeks

Flag for Germany Past Weather in Westerland, Schleswig-Holstein, Germany — Yesterday and Last 2 Weeks

Now
48 °F

Fog.


Feels Like: 42 °F
Forecast: 47 / 49 °F
Wind: 18 mph from West

Location: Westerland / Sylt

Current Time: Dec 8, 2016 at 3:21:07 pm

Latest Report: Dec 8, 2016 at 2:50 pm


Visibility: 3 mi

Pressure: 30.12 "Hg

Humidity: 100%

Dew Point: 48 °F

Location of WesterlandLocation

Past Weather in Westerland — Graph

°F

Westerland Temperature Yesterday

Maximum temperature yesterday: 46 °F (at 3:50 pm)
Minimum temperature yesterday: 41 °F (at 9:50 am)
Average temperature yesterday: 45 °F

High & Low Weather Summary for the Past Weeks

 TemperatureHumidityPressure
High50 °F (Nov 23, 1:20 pm)100% (Nov 23, 4:20 pm)30.54 "Hg (Nov 23, 4:20 pm)
Low25 °F (Dec 3, 9:50 am)57% (Nov 27, 12:50 pm)29.92 "Hg (Dec 1, 3:50 pm)
Average44 °F85%30.25 "Hg
* Reported Nov 23 1:20 pm — Dec 8 1:50 pm, Westerland, Weather by CustomWeather, © 2016

Note: Actual official high and low records may vary slightly from our data, if they occured in-between our weather recording intervals... More about our weather records

Advertising

Westerland Weather History for the Previous 24 Hours

Scroll right to see more
 ConditionsComfort  
Time TempWeatherWind HumidityBarometerVisibility
1:50 pm
Thu, Dec 8
48 °FFog.17 mph100%30.12 "Hg1 mi
1:20 pm48 °FFog.17 mph100%30.12 "Hg2 mi
12:50 pm50 °FFog.16 mph94%30.12 "Hg3 mi
12:20 pm50 °FMostly cloudy.16 mph94%30.12 "Hg3 mi
11:50 am50 °FLow clouds.15 mph100%30.12 "Hg4 mi
11:20 am50 °FLow clouds.16 mph100%30.15 "Hg3 mi
10:50 am50 °FCloudy.17 mph100%30.15 "Hg4 mi
10:20 am50 °FLow clouds.17 mph94%30.15 "Hg3 mi
9:50 am50 °FLow clouds.17 mph94%30.15 "Hg3 mi
8:20 pm
Wed, Dec 7
46 °FFog.18 mph100%30.15 "Hg2 mi
7:50 pm46 °FFog.20 mph100%30.12 "Hg2 mi
6:20 pm46 °FFog.20 mph100%30.15 "Hg2 mi
5:50 pm46 °FFog.21 mph100%30.12 "Hg2 mi
5:20 pm46 °FFog.21 mph100%30.12 "Hg2 mi
4:50 pm46 °FFog.20 mph100%30.15 "Hg2 mi
4:20 pm46 °FFog.20 mph93%30.15 "Hg2 mi
3:50 pm46 °FFog.18 mph93%30.15 "Hg2 mi
Weather by CustomWeather, © 2016

See weather overviewHow to use our weather pages